Location: Corralito
(14.1667°N, 87.1833°W)
Time: 00:32:12
(UTC+00:00)

Resurs 01 Rocket - Pass Details

Date: 07 June 2020
Orbit: 633 x 645 km, 98.0° (Epoch: 11 July)

Event Time Altitude Azimuth Distance (km) Brightness Sun altitude
Exits shadow 03:18:10 16° 318° (NW) 1,684 4.4 -38.0°
Drops below altitude 10° 03:19:10 10° 325° (NW) 2,036 4.9 -38.2°
Sets 03:21:32 0° 335° (NNW) 2,945 5.9 -38.6°
